Location: Fernhill
(41.0167°S, 175.6333°E)
Time: 00:12:45
(UTC+00:00)

Meteor 1-31 Rocket - Pass Details

Date: 08 November 2025
Orbit: 463 x 479 km, 97.6° (Epoch: 04 December)

Event Time Altitude Azimuth Distance (km) Brightness Sun altitude
Rises 08:37:26 0° 170° (S) 2,591 6.7 -15.5°
Reaches altitude 10° 08:39:32 10° 172° (S) 1,698 5.7 -15.8°
Maximum altitude 08:43:11 72° 255° (WSW) 519 2.8 -16.3°
Drops below altitude 10° 08:46:44 10° 340° (NNW) 1,660 5.1 -16.8°
Enters shadow 08:46:51 - 340° (NNW) 1,707 5.1 -16.8°
